Weather History for San Luis Obispo, CA

Change the Weather History Date:

Wednesday, January 29, 2014

  Actual Average Record
Temperature  
Mean Temperature 65 °F -  
Max Temperature 75 °F 63 °F 82 °F (1976)
Min Temperature 55 °F 40 °F 27 °F (1979)
Growing Degree Days 15 (Base 50)    
Moisture  
Dew Point 50 °F    
Average Humidity 66    
Maximum Humidity 94    
Minimum Humidity 37    
Precipitation  
Precipitation 0.00 in - - ()
Sea Level Pressure  
Sea Level Pressure 30.04 in    
Wind  
Wind Speed 7 mph (NW)    
Max Wind Speed 21 mph    
Max Gust Speed 26 mph    
Visibility 10 miles    
Events      
Averages and records for this station are not official NWS values.
T = Trace of Precipitation, MM = Missing Value Source: NWS Daily Summary

Daily Weather History Graph

Daily Weather History Graph

Search for Another Location

Airport:

Trip Planner

Search our weather history database for the weather conditions in past years. The results will help you decide how hot, cold, wet, or windy it might be!

Date:

Astronomy

Jan. 29, 2014 Rise Set
Actual Time 7:03 AM PST 5:28 PM PST
Civil Twilight 6:37 AM PST 5:54 PM PST
Nautical Twilight 6:06 AM PST 6:25 PM PST
Astronomical Twilight 5:36 AM PST 6:55 PM PST
Moon 5:44 AM PST (1/29) 4:33 PM PST (1/29)
Length of Visible Light 11h 17m
Length of Day
10h 24m
Waning Crescent, 2% of the Moon is Illuminated
Jan 29
Waning Crescent
Jan 30
New
Feb 6
First Quarter
Feb 14
Full
Feb 22
Last Quarter

Hourly Weather History & Observations

Time (PST) Temp. Dew Point Humidity Pressure Visibility Wind Dir Wind Speed Gust Speed Precip Events Conditions
12:56 AM 55.0 °F 43.0 °F 64% 30.15 in 10.0 mi Calm Calm - N/A   Clear
1:56 AM 55.0 °F 43.0 °F 64% 30.14 in 10.0 mi SW 4.6 mph - N/A   Clear
2:56 AM 62.1 °F 43.0 °F 50% 30.13 in 10.0 mi NW 8.1 mph - N/A   Clear
3:56 AM 63.0 °F 44.1 °F 50% 30.11 in 10.0 mi NW 5.8 mph - N/A   Clear
4:56 AM 57.9 °F 43.0 °F 58% 30.12 in 10.0 mi Calm Calm - N/A   Clear
5:56 AM 57.9 °F 44.1 °F 60% 30.12 in 10.0 mi ESE 3.5 mph - N/A   Clear
6:56 AM 55.9 °F 43.0 °F 62% 30.13 in 10.0 mi Variable 4.6 mph - N/A   Clear
7:56 AM 55.9 °F 44.1 °F 64% 30.12 in 10.0 mi Variable 4.6 mph - N/A   Scattered Clouds
8:56 AM 64.9 °F 45.0 °F 48% 30.12 in 10.0 mi Calm Calm - N/A   Clear
9:56 AM 71.1 °F 45.0 °F 39% 30.12 in 10.0 mi Calm Calm - N/A   Scattered Clouds
10:56 AM 73.9 °F 46.0 °F 37% 30.11 in 10.0 mi NNW 4.6 mph - N/A   Scattered Clouds
11:56 AM 73.9 °F 51.1 °F 45% 30.08 in 10.0 mi NW 13.8 mph - N/A   Clear
12:56 PM 75.0 °F 52.0 °F 44% 30.03 in 10.0 mi NW 17.3 mph - N/A   Clear
1:56 PM 73.9 °F 53.1 °F 48% 30.01 in 10.0 mi NW 18.4 mph - N/A   Clear
2:56 PM 71.1 °F 54.0 °F 55% 29.98 in 10.0 mi NW 20.7 mph - N/A   Clear
3:56 PM 69.1 °F 54.0 °F 58% 29.98 in 10.0 mi NW 20.7 mph 26.5 mph N/A   Clear
4:56 PM 64.0 °F 55.0 °F 73% 29.98 in 10.0 mi NW 13.8 mph - N/A   Clear
5:56 PM 61.0 °F 55.0 °F 81% 29.97 in 10.0 mi NNW 13.8 mph - N/A   Clear
6:56 PM 60.1 °F 55.0 °F 83% 29.97 in 10.0 mi NW 15.0 mph 19.6 mph N/A   Clear
7:56 PM 59.0 °F 55.0 °F 87% 29.95 in 10.0 mi NW 17.3 mph - N/A   Clear
8:56 PM 57.9 °F 55.0 °F 90% 29.96 in 10.0 mi NNW 8.1 mph - N/A   Clear
9:45 PM 57.2 °F 55.4 °F 94% 29.96 in 10.0 mi NNW 10.4 mph - N/A   Scattered Clouds
9:56 PM 57.9 °F 55.0 °F 90% 29.96 in 10.0 mi NNW 10.4 mph - N/A   Mostly Cloudy
10:33 PM 57.2 °F 55.4 °F 94% 29.96 in 9.0 mi NNW 11.5 mph - N/A   Mostly Cloudy
10:56 PM 57.0 °F 55.0 °F 93% 29.95 in 7.0 mi NW 8.1 mph - N/A   Overcast
11:56 PM 57.0 °F 55.0 °F 93% 29.95 in 7.0 mi NW 11.5 mph - N/A   Overcast